Location: Grand Moustoir
(47.8355°N, 3.3120°W)
Time: 16:15:03
(UTC+00:00)

Cosmos 2297 Rocket - Pass Details

Date: 20 January 2020
Orbit: 838 x 845 km, 71.0° (Epoch: 19 February)

Event Time Altitude Azimuth Distance (km) Brightness Sun altitude
Exits shadow 05:38:10 16° 210° (SSW) 2,049 4.0 -22.4°
Drops below altitude 10° 05:39:34 10° 200° (SSW) 2,460 4.5 -22.2°
Sets 05:42:18 0° 189° (S) 3,390 5.3 -21.7°
